Regional Weather Roundup
Issued by NWS

Home | Current Version | Previous Version | Graphics & Text | Print | Product List | Glossary On
Versions: 1 2 3 4 5 6 7 8 9 10 11 12 13 14 15 16 17 18 19 20 21 22 23 24 25 26 27 28 29 30 31 32 33 34 35 36 37 38 39 40 41 42 43 44 45 46 47 48 49 50
000
ASUS43 KMPX 241001
RWRMN
WEATHER ROUNDUP FOR MINNESOTA
NATIONAL WEATHER SERVICE TWIN CITIES/CHANHASSEN MN
500 AM CDT MON JUL 24 2017


NOTE: "FAIR" INDICATES FEW OR NO CLOUDS BELOW 12,000 FEET WITH NO
SIGNIFICANT WEATHER AND/OR OBSTRUCTIONS TO VISIBILITY. N/A MEANS
CURRENT SKY AND/OR WEATHER CONDITIONS ARE NOT AVAILABLE.

MNZ060>063-068>070-241100-
   Twin Cities Metro

CITY           SKY/WX    TMP DP  RH WIND       PRES   REMARKS
TWIN CITIES    CLEAR     61  55  81 N3        30.05R
ST PAUL        CLEAR     60  57  89 CALM      30.05R
CRYSTAL        CLEAR     57  53  86 CALM      30.04R FOG
BLAINE           N/A     57  55  94 CALM      30.05R FOG
LAKEVILLE      CLEAR     54  54 100 CALM      30.05R
EDEN PRAIRIE   CLEAR     61  57  87 NE5       30.04R
SOUTH ST PAUL  CLEAR     61  56  83 CALM      30.04S
LAKE ELMO      FAIR      54  54 100 CALM      30.06S
$$
MNZ001>005-007-008-013>017-022>024-027-028-241100-
   Northwest Minnesota

CITY           SKY/WX    TMP DP  RH WIND       PRES   REMARKS
BEMIDJI        CLEAR     56  56  97 SE6       30.03F
HALLOCK        CLEAR     59  57  94 S5        29.94R
ROSEAU         CLEAR     59  54  82 S5        29.97S
WARROAD        CLEAR     59  55  88 S3        29.98S
CROOKSTON      CLEAR     61  59  94 S9        29.97F
FOSSTON        CLEAR     57  54  88 SE6       30.01S
DETROIT LAKES  CLEAR     61  59  94 SE7       30.03S
MOORHEAD       CLEAR     63  59  88 SE9       30.00R
PARK RAPIDS    CLEAR     59  56  89 SE5       30.04S
MAHNOMEN       FAIR      59  57  92 SE6       30.01S
$$
MNZ006-009>011-018-025>026-241100-
   North Central Minnesota

CITY           SKY/WX    TMP DP  RH WIND       PRES   REMARKS
BAUDETTE       CLEAR     57  56  96 SE5       30.00S
FLAG ISLAND    CLEAR     64  61  88 CALM      29.97R FOG
INTL FALLS     CLEAR     55  53  93 CALM      30.03S
WASKISH        CLEAR     57  57 100 S3          N/A
BIG FORK       MOCLDY    50  48  93 CALM      30.05S FOG
LONGVILLE      CLEAR     52  52 100 CALM      30.05S FOG
GRAND RAPIDS   CLEAR     50  50 100 CALM      30.08S
CRANE LAKE     CLEAR     48  48 100 CALM      30.06S
ORR            CLEAR     54  52  94 CALM      30.04S
COOK           CLEAR     48  48 100 CALM      30.07S
WALKER         FAIR      58  57  96 CALM      30.04F
$$
MNZ012-019>021-037-241100-
   Northeast Minnesota

CITY           SKY/WX    TMP DP  RH WIND       PRES   REMARKS
DULUTH         FOG       50  50 100 SW5       30.08R VSB 1/4
ELY            CLEAR     48  46  93 CALM      30.07S
HIBBING        FOG       44  44 100 CALM      30.07S VSB 1/4
EVELETH        FOG       45  43  92 CALM      30.08S VSB 1/4
DULUTH HARBOR  CLOUDY    57  55  94 S3        30.09R
TWO HARBORS    CLEAR     46  43  87 CALM      30.06R
SILVER BAY     CLEAR     45  43  93 CALM      30.06R
GRAND MARAIS     N/A     51  50  96 CALM      30.06R
G MARAIS ARPRT CLEAR     45  39  81 CALM      30.09R
$$
MNZ029>031-032-039>041-046>048-054>057-064-241100-
   West Central Minnesota

CITY           SKY/WX    TMP DP  RH WIND       PRES   REMARKS
FERGUS FALLS   CLEAR     63  63 100 S8        30.02R
WHEATON        CLEAR     55  54  94 SE6       30.03S
MORRIS         CLEAR     59  57  94 SE7       30.02S
ALEXANDRIA     CLEAR     59  57  93 SE6       30.05S
ELBOW LAKE     FAIR      60  58  96 E7        30.03S
WADENA         CLEAR     57  57 100 CALM      30.03F
GLENWOOD       CLEAR     57  55  94 SE5       30.05R
APPLETON       CLEAR     61  57  88 SE6       30.02S
BENSON         CLEAR     59  57  94 S5        30.05S
ORTONVILLE     CLEAR     59  57  94 SE5       30.02S
MADISON        CLEAR     57  57 100 SE3       30.02S
WILLMAR        FAIR      57  57 100 SE6       30.05S
$$
MNZ033>034-036-042>043-049>051-058-059-241100-
   Central Minnesota

CITY           SKY/WX    TMP DP  RH WIND       PRES   REMARKS
ST CLOUD       CLEAR     52  52 100 E3        30.05R
SAUK CENTRE    FAIR      54  54  99 CALM      30.05S FOG
PAYNESVILLE    CLEAR     54  54  98 CALM      30.05S
AITKIN         FOG       45  43  93 CALM      30.05S VSB 1/4
PINE RIVER     MOCLDY    52  52 100 CALM      30.08S FOG
BRAINERD       CLEAR     50  50 100 CALM      30.06S
STAPLES        CLEAR     54  54 100 CALM      30.04F
LONG PRAIRIE     N/A     54  54 100 CALM      30.05S FOG
LITTLE FALLS     N/A     50  50 100 CALM      30.06R FOG
LITCHFIELD       N/A     57  57 100 CALM      30.05S FOG
BUFFALO        CLEAR     56  54  92 CALM      30.06S
MAPLE LAKE     FOG       55  55  99 CALM      30.06S VSB 1/2
HUTCHINSON     CLEAR     55  55  99 E3        30.05S FOG
$$
MNZ037-044-045-052-053-241100-
   East Central Minnesota

CITY           SKY/WX    TMP DP  RH WIND       PRES   REMARKS
PRINCETON      CLEAR     54  52  94 CALM      30.05S FOG
MORA           FOG       50  50 100 CALM      30.08S VSB 1/2
CAMBRIDGE      CLEAR     54  52  94 CALM      30.04S FOG
RUSH CITY      FOG       54  52  95 NE3       30.07R VSB 1
MOOSE LAKE     FOG       54  54 100 CALM      30.06S VSB 1/2
HINCKLEY       FOG       50  50 100 CALM      30.07S VSB 1/2
CLOQUET        FOG       55  54  94 CALM      30.08S VSB 1/4
MCGREGOR       CLOUDY    50  48  93 CALM      30.08R VSB 1/2
$$
MNZ071>073-080-081-089-090-097-098-241100-
   Southwest Minnesota

CITY           SKY/WX    TMP DP  RH WIND       PRES   REMARKS
MONTEVIDEO     CLEAR     57  55  94 S3        30.04R
GRANITE FALLS  CLEAR     60  58  92 E5        30.04S
CANBY          CLEAR     56  55  96 CALM      30.04R
MARSHALL       CLEAR     59  58  96 CALM      30.03S
REDWOOD FALLS  CLEAR     59  56  89 E5        30.03S
OLIVIA         CLEAR     57  54  88 CALM      30.03S
PIPESTONE      CLEAR     59  55  88 CALM      30.04R
WINDOM         CLEAR     57  55  94 E3        30.04S
WORTHINGTON    CLEAR     54  54 100 CALM      30.05R
JACKSON        CLEAR     55  55 100 CALM      30.04S FOG
SLAYTON        HVY RAIN  56  50  79 CALM      30.05R
$$
MNZ065>067-074>077-082>085-091>093-241100-
   South Central Minnesota

CITY           SKY/WX    TMP DP  RH WIND       PRES   REMARKS
MANKATO        CLEAR     60  57  89 E5        30.04S
NEW ULM        CLEAR     61  57  88 CALM      30.04R
ST JAMES       CLEAR     57  55  94 CALM      30.05S
FAIRMONT       CLEAR     57  56  96 CALM      30.04S FOG
GLENCOE        CLEAR     56  57 100 CALM      30.04R FOG
FARIBAULT      CLEAR     55  55 100 CALM      30.05R
OWATONNA       CLEAR     55  55 100 CALM      30.04S
WASECA         CLEAR     55  55 100 NE3       30.05S
ALBERT LEA     CLEAR     55  55 100 CALM      30.03S FOG
$$
MNZ078>079-086>088-094>096-241100-
   Southeast Minnesota

CITY           SKY/WX    TMP DP  RH WIND       PRES   REMARKS
ROCHESTER      MOCLDY    58  57  97 NE6       30.05R
RED WING       CLOUDY    61  55  82 E3        30.04R
STANTON        CLEAR     54  53  95 CALM      30.03S FOG
DODGE CENTER   CLEAR     57  55  94 NE3       30.04S
WINONA         CLEAR     59  57  94 CALM      30.04R
AUSTIN         CLEAR     55  54  94 CALM      30.03S
PRESTON        MOCLDY    56  55  95 N3        30.05R
$$
ABBREVIATIONS USED IN REMARKS
   TC - TEMPERATURES IN CELSIUS
  WCI - WIND CHILL INDEX
   HX - HEAT INDEX
  VSB - VISIBILITY
$$




USA.gov is the U.S. government's official web portal to all federal, state and local government web resources and services.